SCP
0 0 0 0 0 0 0 0 0 0 0 0 0 0 0 0 0 0 0 0 0 0 0 0 0 0 0 0 0 0 0 0
0 0 0 0 0 0 0 0 0 0 0 0 0 0 0 0 0 0 0 0 0 0 0 0 0 0 0 0 0 0 0 0
0 0 0 0 0 0 0 0 0 0 0 0 0 0 0 0 0 0 0 0 0 0 0 0 0 0 0 0 0 0 0 0
0 0 0 0 0 0 0 0 0 0 0 0 0 0 0 0 0 0 0 0 0 0 0 0 0 0 0 0 0 0 0 0
0 0 0 0 0 0 0 0 0 0 0 0 0 0 0 0 0 0 0 0 0 0 0 0 0 0 0 0 0 0 0 0
0 0 0 0 0 0 0 0 0 0 0 0 0 0 0 0 0 0 0 0 0 0 0 0 0 0 0 0 0 0 0 0
0 0 0 0 0 0 0 0 0 0 0 0 0 0 0 0 0 0 0 0 0 0 0 0 0 0 0 0 0 0 0 0
0 0 0 0 0 0 0 0 0 0 0 0 0 0 0 0 0 0 0 0 0 0 0 0 0 0 0 0 0 0 0 0
0 0 0 0 0 0 0 0 0 0 0 0 0 0 0 0 0 0 0 0 0 0 0 0 0 0 0 0 0 0 0 0
0 0 0 0 0 0 0 0 0 0 0 0 0 0 0 0 0 0 0 0 0 0 0 0 0 0 0 0 0 0 0 0
0 0 0 0 0 0 0 0 0 0 0 0 0 0 0 0 0 0 0 0 0 0 0 0 0 0 0 0 0 0 0 0
0 0 0 0 0 0 0 0 0 0 0 0 0 0 0 0 0 0 0 0 0 0 0 0 0 0 0 0 0 0 0 0
0 0 0 0 0 0 0 0 0 0 0 0 0 0 0 0 0 0 0 0 0 0 0 0 0 0 0 0 0 0 0 0
0 0 0 0 0 0 0 0 0 0 0 0 0 0 0 0 0 0 0 0 0 0 0 0 0 0 0 0 0 0 0 0
0 0 0 0 0 0 0 0 0 0 0 0 0 0 0 0 0 0 0 0 0 0 0 0 0 0 0 0 0 0 0 0
0 0 0 0 0 0 0 0 0 0 0 0 0 0 0 0 0 0 0 0 0 0 0 0 0 0 0 0 0 0 0 0
0 0 0 0 0 0 0 0 0 0 0 0 0 0 0 0 0 0 0 0 0 0 0 0 0 0 0 0 0 0 0 0
0 0 0 0 0 0 0 0 0 0 0 0 0 0 0 0 0 0 0 0 0 0 0 0 0 0 0 0 0 0 0 0
0 0 0 0 0 0 0 0 0 0 0 0 0 0 0 0 0 0 0 0 0 0 0 0 0 0 0 0 0 0 0 0
0 0 0 0 0 0 0 0 0 0 0 0 0 0 0 0 0 0 0 0 0 0 0 0 0 0 0 0 0 0 0 0
Wind_Speed_500mb
54 48 45 46 43 42 42 41 38 37 37 35 32 29 26 25 24 26 28 30 32 34 33 33 32 30 28 25 21 18 15 13
53 49 46 46 45 47 48 45 43 44 43 39 35 31 31 30 29 30 31 32 34 34 33 31 29 26 23 18 15 12 10 9
53 50 49 50 50 51 51 50 48 52 49 45 41 37 34 32 32 32 32 34 34 34 32 29 25 20 15 12 11 10 9 5
60 58 55 54 54 54 54 54 56 56 54 48 43 40 40 38 36 36 35 33 33 32 29 25 20 16 13 11 9 5 3 6
64 64 63 60 58 59 59 60 59 59 57 53 50 47 45 43 39 38 35 33 31 29 26 23 20 17 14 11 8 7 8 12
67 69 69 67 67 65 65 63 61 61 61 59 56 52 50 47 42 38 35 32 30 28 25 23 21 19 16 13 11 11 13 15
60 71 74 71 75 76 73 72 69 65 62 60 58 55 52 48 43 38 35 33 30 29 27 25 24 21 18 16 15 15 16 16
63 65 69 72 75 82 84 82 75 69 64 61 60 57 52 47 43 39 36 34 32 30 28 25 23 23 19 17 17 17 19 21
65 66 68 70 73 83 89 83 77 73 67 62 58 54 51 47 43 40 38 36 33 31 28 25 24 24 21 18 18 17 19 22
60 63 63 63 68 73 79 80 80 77 70 62 55 52 49 46 44 41 39 36 34 31 28 24 23 22 25 17 20 19 19 20
47 46 50 55 58 67 74 78 81 76 65 56 52 51 50 47 44 41 38 35 32 29 25 22 23 21 26 21 22 23 21 21
40 42 47 49 51 57 64 69 70 63 58 55 50 46 43 41 40 38 34 32 30 28 25 23 22 22 25 26 23 25 27 26
39 40 39 43 46 51 56 61 59 54 52 51 50 49 47 43 38 34 31 30 27 27 27 24 21 22 25 26 28 28 28 30
42 37 37 41 46 49 51 50 50 48 48 48 46 42 41 41 38 33 27 30 28 27 26 26 24 24 25 27 31 31 27 31
43 44 44 45 46 47 48 47 46 45 44 45 43 41 38 34 30 25 30 30 27 28 28 28 28 28 30 31 31 30 29 34
45 46 46 46 47 46 45 45 45 44 43 43 40 37 32 31 30 33 31 29 27 33 33 31 31 31 32 28 31 25 35 39
47 47 47 46 44 43 42 42 41 42 42 40 38 36 36 32 30 26 29 33 33 33 35 36 32 31 31 29 27 28 39 37
47 42 42 43 43 42 40 39 39 42 43 45 46 32 29 28 30 29 32 30 34 36 38 38 36 38 38 35 26 40 37 38
42 41 41 43 44 42 41 43 45 47 46 37 29 32 30 23 31 32 35 35 36 39 40 39 41 40 38 36 41 38 38 41
41 42 43 45 46 45 48 48 46 42 36 32 33 28 28 33 36 36 37 37 37 38 39 42 42 40 39 41 43 41 38 41
Wind_Direction_500mb
208 213 223 225 222 224 225 229 234 238 236 234 238 248 253 257 260 264 272 279 284 286 287 286 284 283 281 279 275 268 260 254
215 226 230 224 228 229 230 234 238 241 239 241 242 242 246 251 258 266 273 280 285 287 288 286 285 283 280 270 252 230 202 183
227 230 230 232 233 235 236 239 242 242 240 237 239 242 248 253 259 266 272 277 281 283 282 281 279 274 263 239 207 187 178 179
230 232 236 241 241 241 243 244 245 243 241 241 243 246 250 252 255 261 265 269 272 275 275 272 265 250 230 214 210 216 270 318
235 239 242 243 244 244 245 245 246 245 245 244 244 245 248 250 252 255 258 259 261 263 262 258 249 237 229 229 244 274 299 314
242 245 246 246 244 245 247 247 247 246 246 246 246 246 247 247 247 247 248 248 249 250 246 243 237 233 235 247 267 289 303 312
255 252 250 254 255 253 250 249 246 246 246 244 244 244 243 242 241 240 239 236 235 237 238 235 238 240 250 261 275 285 292 296
268 265 262 261 263 259 254 246 243 243 242 242 241 241 240 239 237 235 233 232 230 230 234 237 242 251 251 262 275 288 298 305
271 270 271 271 265 258 252 245 242 241 241 241 240 239 238 237 235 233 230 229 228 228 231 238 246 259 264 271 281 289 297 304
276 276 276 274 268 261 254 246 242 241 240 240 241 240 238 234 231 228 226 226 227 227 229 234 245 260 274 279 286 292 295 299
266 268 276 277 266 255 249 242 239 238 239 241 241 240 237 234 230 226 223 223 224 226 227 236 248 260 280 290 293 295 297 298
265 269 275 273 265 254 247 241 238 236 236 235 234 233 231 228 225 224 225 225 228 232 237 238 246 263 276 290 298 304 310 310
270 265 262 262 258 248 240 237 235 234 235 235 230 226 223 221 219 216 218 222 230 236 245 251 258 268 276 287 292 298 304 303
267 259 262 257 252 243 238 234 233 231 229 227 225 220 215 212 212 217 221 232 237 246 253 263 271 274 276 281 286 294 297 300
256 256 254 250 243 236 234 232 230 228 225 222 219 214 213 213 209 218 231 233 239 251 259 267 272 277 281 285 290 300 303 301
257 256 251 246 242 239 236 232 228 223 220 215 209 204 202 215 225 224 227 237 251 259 263 268 273 276 277 285 294 306 295 296
256 250 246 244 241 238 234 229 223 216 208 202 198 205 218 220 226 233 253 259 260 267 272 272 276 280 283 281 288 282 276 294
251 249 244 240 235 229 224 219 211 203 198 198 209 209 212 216 246 252 250 258 263 267 269 276 279 279 281 279 281 281 295 295
245 239 235 230 227 221 216 206 202 201 203 206 202 209 230 234 240 248 256 262 266 269 270 272 276 279 277 277 277 283 287 293
234 229 224 221 219 214 211 210 206 206 206 206 220 222 226 235 243 251 259 262 262 263 270 274 276 276 275 276 280 281 286 286
Wind_Speed_850mb
54 48 45 46 43 42 42 41 38 37 37 35 32 29 26 25 24 26 28 30 32 34 33 33 32 30 28 25 21 18 15 13
53 49 46 46 45 47 48 45 43 44 43 39 35 31 31 30 29 30 31 32 34 34 33 31 29 26 23 18 15 12 10 9
53 50 49 50 50 51 51 50 48 52 49 45 41 37 34 32 32 32 32 34 34 34 32 29 25 20 15 12 11 10 9 5
60 58 55 54 54 54 54 54 56 56 54 48 43 40 40 38 36 36 35 33 33 32 29 25 20 16 13 11 9 5 3 6
64 64 63 60 58 59 59 60 59 59 57 53 50 47 45 43 39 38 35 33 31 29 26 23 20 17 14 11 8 7 8 12
67 69 69 67 67 65 65 63 61 61 61 59 56 52 50 47 42 38 35 32 30 28 25 23 21 19 16 13 11 11 13 15
60 71 74 71 75 76 73 72 69 65 62 60 58 55 52 48 43 38 35 33 30 29 27 25 24 21 18 16 15 15 16 16
63 65 69 72 75 82 84 82 75 69 64 61 60 57 52 47 43 39 36 34 32 30 28 25 23 23 19 17 17 17 19 21
65 66 68 70 73 83 89 83 77 73 67 62 58 54 51 47 43 40 38 36 33 31 28 25 24 24 21 18 18 17 19 22
60 63 63 63 68 73 79 80 80 77 70 62 55 52 49 46 44 41 39 36 34 31 28 24 23 22 25 17 20 19 19 20
47 46 50 55 58 67 74 78 81 76 65 56 52 51 50 47 44 41 38 35 32 29 25 22 23 21 26 21 22 23 21 21
40 42 47 49 51 57 64 69 70 63 58 55 50 46 43 41 40 38 34 32 30 28 25 23 22 22 25 26 23 25 27 26
39 40 39 43 46 51 56 61 59 54 52 51 50 49 47 43 38 34 31 30 27 27 27 24 21 22 25 26 28 28 28 30
42 37 37 41 46 49 51 50 50 48 48 48 46 42 41 41 38 33 27 30 28 27 26 26 24 24 25 27 31 31 27 31
43 44 44 45 46 47 48 47 46 45 44 45 43 41 38 34 30 25 30 30 27 28 28 28 28 28 30 31 31 30 29 34
45 46 46 46 47 46 45 45 45 44 43 43 40 37 32 31 30 33 31 29 27 33 33 31 31 31 32 28 31 25 35 39
47 47 47 46 44 43 42 42 41 42 42 40 38 36 36 32 30 26 29 33 33 33 35 36 32 31 31 29 27 28 39 37
47 42 42 43 43 42 40 39 39 42 43 45 46 32 29 28 30 29 32 30 34 36 38 38 36 38 38 35 26 40 37 38
42 41 41 43 44 42 41 43 45 47 46 37 29 32 30 23 31 32 35 35 36 39 40 39 41 40 38 36 41 38 38 41
41 42 43 45 46 45 48 48 46 42 36 32 33 28 28 33 36 36 37 37 37 38 39 42 42 40 39 41 43 41 38 41
Wind_Direction_850mb
208 213 223 225 222 224 225 229 234 238 236 234 238 248 253 257 260 264 272 279 284 286 287 286 284 283 281 279 275 268 260 254
215 226 230 224 228 229 230 234 238 241 239 241 242 242 246 251 258 266 273 280 285 287 288 286 285 283 280 270 252 230 202 183
227 230 230 232 233 235 236 239 242 242 240 237 239 242 248 253 259 266 272 277 281 283 282 281 279 274 263 239 207 187 178 179
230 232 236 241 241 241 243 244 245 243 241 241 243 246 250 252 255 261 265 269 272 275 275 272 265 250 230 214 210 216 270 318
235 239 242 243 244 244 245 245 246 245 245 244 244 245 248 250 252 255 258 259 261 263 262 258 249 237 229 229 244 274 299 314
242 245 246 246 244 245 247 247 247 246 246 246 246 246 247 247 247 247 248 248 249 250 246 243 237 233 235 247 267 289 303 312
255 252 250 254 255 253 250 249 246 246 246 244 244 244 243 242 241 240 239 236 235 237 238 235 238 240 250 261 275 285 292 296
268 265 262 261 263 259 254 246 243 243 242 242 241 241 240 239 237 235 233 232 230 230 234 237 242 251 251 262 275 288 298 305
271 270 271 271 265 258 252 245 242 241 241 241 240 239 238 237 235 233 230 229 228 228 231 238 246 259 264 271 281 289 297 304
276 276 276 274 268 261 254 246 242 241 240 240 241 240 238 234 231 228 226 226 227 227 229 234 245 260 274 279 286 292 295 299
266 268 276 277 266 255 249 242 239 238 239 241 241 240 237 234 230 226 223 223 224 226 227 236 248 260 280 290 293 295 297 298
265 269 275 273 265 254 247 241 238 236 236 235 234 233 231 228 225 224 225 225 228 232 237 238 246 263 276 290 298 304 310 310
270 265 262 262 258 248 240 237 235 234 235 235 230 226 223 221 219 216 218 222 230 236 245 251 258 268 276 287 292 298 304 303
267 259 262 257 252 243 238 234 233 231 229 227 225 220 215 212 212 217 221 232 237 246 253 263 271 274 276 281 286 294 297 300
256 256 254 250 243 236 234 232 230 228 225 222 219 214 213 213 209 218 231 233 239 251 259 267 272 277 281 285 290 300 303 301
257 256 251 246 242 239 236 232 228 223 220 215 209 204 202 215 225 224 227 237 251 259 263 268 273 276 277 285 294 306 295 296
256 250 246 244 241 238 234 229 223 216 208 202 198 205 218 220 226 233 253 259 260 267 272 272 276 280 283 281 288 282 276 294
251 249 244 240 235 229 224 219 211 203 198 198 209 209 212 216 246 252 250 258 263 267 269 276 279 279 281 279 281 281 295 295
245 239 235 230 227 221 216 206 202 201 203 206 202 209 230 234 240 248 256 262 266 269 270 272 276 279 277 277 277 283 287 293
234 229 224 221 219 214 211 210 206 206 206 206 220 222 226 235 243 251 259 262 262 263 270 274 276 276 275 276 280 281 286 286